Location: Callao
(39.8979°N, 113.7141°W)
Time: 13:56:09
(UTC+00:00)

X-37B - Pass Details

Date: 15 March 2021
Orbit: 380 x 394 km, 45.0° (Epoch: 07 April)

Event Time Altitude Azimuth Distance (km) Brightness Sun altitude
Rises 03:12:32 0° 270° (W) 2,267 6.0 -18.2°
Reaches altitude 10° 03:14:41 10° 278° (W) 1,417 4.7 -18.6°
Maximum altitude 03:17:41 37° 349° (NNW) 620 1.8 -19.2°
Enters shadow 03:18:15 34° 16° (NNE) 666 1.7 -19.3°
